Torna al catalogo

CZ-4 DEB

AttivoPO
NORAD 26140·DEBRIS·🇨🇳 China

Lanciato Oct 14, 1999 da Taiyuan Satellite Launch Center

Loading…

Prossimi Passaggi (prossime 24 ore)

TLE

AggiornatoSource: Space-Track

Epoca: Sep 14, 2026, 03:02 UTC

1 26140U 99057AC  26257.12671231  .00008988  00000-0  14265-2 0  9991
2 26140  99.3457 208.0248 0130757  13.4582 359.7124 14.66813014387061

Traccia CZ-4 DEB in tempo reale con AllMySat

Download on the App Store